Jordan, MT

3:03 AM MDT on April 25, 2018 (GMT -0600)
Jordan

Weather History for KJDN - December, 2013

Change the Weather History Date:

Sunday, December 15, 2013

  Actual Average Record
Temperature  
Mean Temperature 35 °F 18 °F  
Max Temperature 44 °F 31 °F 64 °F (1980)
Min Temperature 25 °F 6 °F -32 °F (1945)
Degree Days  
Heating Degree Days 30 46  
Month to date heating degree days 882 666  
Since 1 July heating degree days 2819 2684  
Cooling Degree Days 0 0  
Month to date cooling degree days 0 0  
Year to date cooling degree days 520 421  
Moisture  
Dew Point 28 °F    
Average Humidity 68    
Maximum Humidity 78    
Minimum Humidity 57    
Precipitation  
Precipitation 0.00 in 0.01 in 0.15 in (1946)
Month to date precipitation 0.65 0.11  
Year to date precipitation 17.00 12.49  
Snow  
Snow 0.00 in - - ()
Month to date snowfall 0.0  
Since 1 July snowfall 0.0  
Snow Depth 0.00 in    
Sea Level Pressure  
Sea Level Pressure 29.91 in    
Wind  
Wind Speed 9 mph (West)    
Max Wind Speed 29 mph    
Max Gust Speed 35 mph    
T = Trace of Precipitation, MM = Missing Value Source: NWS Daily Summary

Daily Weather History Graph

Daily Weather History Graph

Search for Another Location

Airport or City:

Astronomy

Dec. 15, 2013 Rise Set
Actual Time 7:48 AM MST 4:17 PM MST
Civil Twilight 7:12 AM MST 4:53 PM MST
Nautical Twilight 6:33 AM MST 5:32 PM MST
Astronomical Twilight 5:56 AM MST 6:09 PM MST
Moon 3:28 PM MST (12/15) 6:02 AM MST (12/15)
Length of Visible Light 9h 40m
Length of Day
8h 29m
Waxing Gibbous, 98% of the Moon is Illuminated
Dec 15
Waxing Gibbous
Dec 17
Full
Dec 25
Last Quarter
Jan 1
New
Jan 7
First Quarter

Hourly Weather History & Observations

Time (MST) Temp. Windchill Dew Point Humidity Pressure Visibility Wind Dir Wind Speed Gust Speed Precip Events Conditions
12:48 AM 34.0 °F 28.8 °F 26.1 °F 73% 29.98 in - West 5.8 mph - N/A   Unknown
1:48 AM 35.1 °F 28.6 °F 28.0 °F 76% 29.95 in - West 8.1 mph - N/A   Unknown
2:48 AM 37.9 °F 30.5 °F 28.9 °F 70% 29.94 in - West 11.5 mph - N/A   Unknown
3:48 AM 37.9 °F 30.0 °F 28.9 °F 70% 29.92 in - West 12.7 mph - N/A   Unknown
4:48 AM 36.0 °F 28.5 °F 27.0 °F 70% 29.90 in - West 10.4 mph - N/A   Unknown
5:48 AM 37.0 °F 31.0 °F 27.0 °F 67% 29.90 in - West 8.1 mph - N/A   Unknown
6:48 AM 34.0 °F 27.2 °F 26.1 °F 73% 29.91 in - West 8.1 mph - N/A   Unknown
7:48 AM 39.0 °F 31.4 °F 27.0 °F 62% 29.91 in - West 12.7 mph - N/A   Unknown
8:48 AM 39.9 °F 31.4 °F 27.0 °F 60% 29.89 in - NW 16.1 mph - N/A   Unknown
9:48 AM 41.0 °F 33.9 °F 28.0 °F 60% 29.91 in - West 12.7 mph - N/A   Unknown
10:48 AM 41.0 °F 35.8 °F 28.9 °F 62% 29.91 in - West 8.1 mph - N/A   Unknown
11:48 AM 39.9 °F 37.8 °F 30.0 °F 68% 29.90 in - SW 3.5 mph - N/A   Unknown
12:48 PM 41.0 °F 38.0 °F 30.0 °F 65% 29.88 in - WSW 4.6 mph - N/A   Unknown
1:48 PM 44.1 °F 41.5 °F 30.0 °F 58% 29.86 in - WSW 4.6 mph - N/A   Unknown
2:48 PM 42.1 °F - 30.0 °F 62% 29.87 in - Calm Calm - N/A   Unknown
3:48 PM 37.9 °F - 28.9 °F 70% 29.89 in - Calm Calm - N/A   Unknown
4:48 PM 34.0 °F 29.8 °F 27.0 °F 75% 29.91 in - West 4.6 mph - N/A   Unknown
5:48 PM 37.0 °F 31.6 °F 26.1 °F 65% 29.90 in - WNW 6.9 mph - N/A   Unknown
7:48 PM 30.9 °F 25.2 °F 24.1 °F 76% 29.91 in - WNW 5.8 mph - N/A   Unknown
8:48 PM 30.0 °F 26.5 °F 23.0 °F 75% 29.90 in - WSW 3.5 mph - N/A   Unknown
9:48 PM 36.0 °F 28.0 °F 26.1 °F 67% 29.90 in - West 11.5 mph - N/A   Unknown
10:48 PM 42.1 °F 32.6 °F 28.9 °F 60% 29.92 in - NNW 23.0 mph - N/A   Unknown
11:48 PM 36.0 °F 26.3 °F 28.0 °F 73% 29.99 in - North 16.1 mph - N/A   Unknown